Simultaneous Nadir Overpasses (SNOs) Predictions

Prediction of SNOs between AQUA and NOAA-19 Satellite Orbit:

Table of predicted SNOs for the next 14.0 days since TLE Epoch: 1/4/2019
Index Date (AQUA) Time (AQUA) Lat,Lon (AQUA) SZA (AQUA ) Date (NOAA-19) Time (NOAA-19) Lat,Lon (NOAA-19) SZA (NOAA-19 ) Distance(km) Time Diff (sec)
1 01/06/2019 09:04:03 -80.59,-172.18 75.10 01/06/2019 09:03:53 -80.60,-172.06 75.10 2.79 10
2 01/08/2019 14:37:48 80.58, -75.57 104.64 01/08/2019 14:37:25 80.59, -75.59 104.66 1.18 23
3 01/08/2019 15:27:14 -80.59, 91.98 75.36 01/08/2019 15:28:23 -80.61, 92.03 75.38 2.05 69
4 01/10/2019 20:11:32 -80.60, 20.82 75.63 01/10/2019 20:10:54 -80.59, 20.92 75.64 2.40 38
5 01/10/2019 21:00:59 80.59,-171.45 104.35 01/10/2019 21:01:54 80.60,-171.38 104.33 1.81 55
6 01/13/2019 01:45:16 80.57, 117.68 103.99 01/13/2019 01:44:24 80.59, 117.62 104.03 1.69 52
7 01/13/2019 02:34:43 -80.61, -75.05 75.96 01/13/2019 02:35:24 -80.59, -75.02 75.99 2.03 41
8 01/15/2019 07:19:00 -80.59,-145.92 76.36 01/15/2019 07:17:54 -80.58,-145.82 76.35 2.06 66
9 01/15/2019 08:08:27 80.59, 21.77 103.64 01/15/2019 08:08:53 80.59, 21.79 103.63 1.18 26




NCC Satellite Simultaneous Nadir Overpasses (SNOs) Prediction Service
